Location: Newark
(58.9986°N, 38.5006°E)
Time: 04:22:51
(UTC+00:00)

A-11 Canister half - Visible Passes

Search period start: 14 April 2021 00:00
Search period end: 24 April 2021 00:00
Orbit: 1525 x 1683 km, 47.3° (Epoch: 12 April)

Date Brightness Start Highest point End Pass type
(mag) Time Alt. Az. Time Alt. Az. Time Alt. Az.
14 Apr 9.7 17:40:21 10° WSW 17:49:37 42° S 17:58:26 11° ESE visible
14 Apr 10.0 19:44:43 10° W 19:52:56 29° SSW 19:56:43 23° S visible
14 Apr 10.7 21:52:08 10° WSW 21:55:00 12° SW 21:55:00 12° SW visible
15 Apr 9.7 17:18:43 10° WSW 17:28:00 43° S 17:37:11 10° ESE visible
15 Apr 10.0 19:23:01 10° W 19:31:20 30° SSW 19:36:02 21° S visible
15 Apr 10.6 21:30:00 10° WSW 21:33:38 13° SW 21:34:19 12° SW visible
16 Apr 10.0 19:01:20 10° W 19:09:44 31° SSW 19:15:23 18° SSE visible
16 Apr 10.6 21:07:58 10° WSW 21:12:06 13° SW 21:13:40 13° SW visible
17 Apr 10.0 18:39:39 10° W 18:48:08 32° SSW 18:54:45 16° SSE visible
17 Apr 10.6 20:46:00 10° W 20:50:34 14° SW 20:53:01 13° SW visible
18 Apr 10.0 18:17:59 10° W 18:26:33 33° SSW 18:34:08 13° SSE visible
18 Apr 10.6 20:24:05 10° W 20:29:02 15° SW 20:32:25 12° SSW visible
19 Apr 10.0 17:56:18 10° W 18:04:56 33° SSW 18:13:30 10° SSE visible
19 Apr 10.6 20:02:12 10° W 20:07:29 16° SW 20:11:50 12° SSW visible
20 Apr 10.1 17:34:38 10° W 17:43:20 34° SSW 17:51:58 10° SE visible
20 Apr 10.6 19:40:21 10° W 19:45:56 17° SW 19:51:16 10° SSW visible
21 Apr 10.7 19:18:31 10° W 19:24:23 17° SW 19:30:13 10° S visible
22 Apr 10.7 18:56:42 10° W 19:02:50 18° SW 19:08:55 10° S visible
23 Apr 10.7 18:34:55 10° W 18:41:16 19° SW 18:47:35 10° S visible
